Regional Weather Roundup
Issued by NWS

Home | Current Version | Previous Version | Text Only | Print | Product List | Glossary Off
Versions: 1 2 3 4 5 6 7 8 9 10 11 12 13 14 15 16 17 18 19 20 21 22 23 24 25 26 27 28 29 30 31 32 33 34 35 36 37 38 39 40 41 42 43 44 45 46 47 48 49 50

000
ASUS45 KPSR 270810
RWRAZ

ARIZONA REGIONAL HOURLY WEATHER ROUNDUP
NATIONAL WEATHER SERVICE PHOENIX AZ
100 AM MST TUE JAN 27 2015

NOTE: FAIR INDICATES FEW OR NO CLOUDS BELOW 12,000 FEET WITH NO
SIGNIFICANT WEATHER AND/OR OBSTRUCTIONS TO VISIBILITY.

AZZ001>003-036-270900-
NORTHWEST ARIZONA

CITY           SKY/WX    TMP DP  RH WIND       PRES   REMARKS
BULLHEAD CITY  CLOUDY    54  52  94 CALM      30.22R
KINGMAN        LGT RAIN  46  43  89 CALM      30.21R
$$

AZZ004>008-015-016-018-270900-
NORTH CENTRAL ARIZONA

CITY           SKY/WX    TMP DP  RH WIND       PRES   REMARKS
GRAND CANYON   CLOUDY    40  35  83 CALM      30.30S
PRESCOTT       CLOUDY    44  38  79 SE14      30.26S
FLAGSTAFF      CLOUDY    39  28  64 NE3       30.31F
PAYSON         LGT RAIN  46  32  57 CALM      30.31F
$$

AZZ009>014-017-270900-
NORTHEAST ARIZONA

CITY           SKY/WX    TMP DP  RH WIND       PRES   REMARKS
WINSLOW        CLOUDY    38  32  79 CALM      30.30R
SAINT JOHNS    CLOUDY    40  27  59 SE8       30.28F WCI  34
SHOW LOW       CLOUDY    41  25  52 S9        30.34S
$$

AZZ023-270900-
GREATER PHOENIX AREA

CITY           SKY/WX    TMP DP  RH WIND       PRES   REMARKS
PHOENIX        MOCLDY    58  49  72 S5        30.17S
BUCKEYE          N/A     54  54 100 NW5       30.19S
LUKE AFB       NOT AVBL
DEER VALLEY    CLOUDY    58  46  64 VRB5      30.17S
SCOTTSDALE     CLOUDY    56  51  84 W5        30.18S
MESA-GATEWAY   CLOUDY    52  46  82 CALM      30.20R
$$

AZZ027-028-270900-
SOUTHWEST MARICOPA COUNTY AND PINAL COUNTY

CITY           SKY/WX    TMP DP  RH WIND       PRES   REMARKS
CASA GRANDE    CLOUDY    54  46  76 CALM      30.19S
GILA BEND      PTSUNNY   52  50  93 N2        30.17R
$$

AZZ503-504-507>509-270900-
SOUTHEAST ARIZONA

CITY           SKY/WX    TMP DP  RH WIND       PRES   REMARKS
TUCSON         CLEAR     52  42  69 CALM      30.22S
DAVIS-MONTHAN  PTCLDY    53  44  72 NE6       30.20S
NOGALES        PTCLDY    51  48  89 NE5       30.23S
SIERRA VISTA   MOCLDY    46  43  87 SW7       30.27R
DOUGLAS        CLOUDY    52  30  43 CALM      30.27R
SAFFORD        CLOUDY    56  35  45 E12       30.26F
$$

AZZ020-021-025-026-031-270900-
SOUTHWEST ARIZONA

CITY           SKY/WX    TMP DP  RH WIND       PRES   REMARKS
YUMA           CLOUDY    57  51  80 NE8       30.15S
$$

CAZ031-033-041-043-047-048-061-270900-
SOUTHERN CALIFORNIA

CITY           SKY/WX    TMP DP  RH WIND       PRES   REMARKS
DOWNTOWN L.A.  CLOUDY    58  51  78 CALM      30.11S
L.A. AIRPORT   MOCLDY    57  52  83 VRB3      30.11S
SAN DIEGO      MOCLDY    57  51  80 CALM      30.11S
BURBANK        CLOUDY    55  53  93 CALM      30.11S
ONTARIO        MOCLDY    54  52  93 CALM      30.12S FOG
RIVERSIDE      CLOUDY    54  53  97 CALM      30.13R FOG
PALM SPRINGS   CLOUDY    58  55  90 CALM      30.18R
EL CENTRO NAS  CLOUDY    57  55  93 NW3       30.15S
IMPERIAL       CLOUDY    55  54  96 NW3       30.15S
BLYTHE         CLOUDY    55  53  93 CALM      30.18S
NEEDLES        LGT RAIN  53  50  89 E5        30.20S VSB 1/2
$$

NVZ020-UTZ003-270900-
SOUTHERN NEVADA-UTAH

CITY           SKY/WX    TMP DP  RH WIND       PRES   REMARKS
LAS VEGAS      RAIN      53  48  83 S14       30.17R
SALT LAKE CITY PTCLDY    34  31  88 E6        30.18F WCI  29
$$

NMZ009-TXZ055-270900-
NEW MEXICO-WEST TEXAS

CITY           SKY/WX    TMP DP  RH WIND       PRES   REMARKS
ALBUQUERQUE    PTCLDY    37  26  64 SE3       30.34F
EL PASO        CLOUDY    48  34  58 E5        30.29F
$$


........................KEY........................
SKY/WX - SKY CONDITION/WEATHER
TMP    - TEMPERATURE IN FAHRENHEIT
DP     - DEW POINT IN FAHRENHEIT
RH     - RELATIVE HUMIDITY IN PERCENT
WIND   - DIRECTION AND SPEED IN MILES PER HOUR (MPH)
VRB    - VARIABLE WIND DIRECTION
PRES   - MEAN SEA LEVEL PRESSURE IN INCHES OF MERCURY
         F - FALLING PRESSURE   R - RISING PRESSURE
         S - STEADY PRESSURE
VSB    - VISIBILITY IN MILES
HX     - HEAT INDEX IN FAHRENHEIT
WCI    - WIND CHILL INDEX IN FAHRENHEIT
TC     - TEMPERATURE IN CELSIUS WHICH IS ALSO KNOWN AS
         TEMPERATURE IN CENTIGRADE
AFB    - AIR FORCE BASE
         LUKE AFB IS LUKE AIR FORCE BASE
         DAVIS-MONTHAN IS DAVIS-MONTHAN AIR FORCE BASE
NAS    - NAVAL AIR STATION
         EL CENTRO NAS IS EL CENTRO NAVAL AIR STATION
N/A    - NOT AVAILABLE


USA.gov is the U.S. government's official web portal to all federal, state and local government web resources and services.